WX4GPS Weather Reports


time (UTC)temp
C
wind
direction
speed
KPH
gust
KPH
rain 1hr
cm
rain 24hr
cm
rain mn
cm
humidity
%
barometer
mb
20260507180003 16 317 11.3 24.1 0.00 0.00 0.00
20260507175025 16 259 6.4 20.9 0.00 0.00 0.00
20260507174002 16 325 8.0 19.3 0.00 0.00 0.00
20260507173003 15 271 6.4 24.1 0.00 0.00 0.00
20260507172003 15 310 11.3 22.5 0.00 0.00 0.00
20260507171002 15 299 6.4 17.7 0.00 0.00 0.00
20260507170002 15 314 6.4 16.1 0.00 0.00 0.00
20260507165003 15 303 4.8 17.7 0.00 0.00 0.00
20260507164003 15 331 8.0 22.5 0.00 0.00 0.00
20260507163003 15 259 8.0 17.7 0.00 0.00 0.00
20260507162004 15 258 11.3 17.7 0.00 0.00 0.00
20260507161003 15 252 0.0 17.7 0.00 0.00 0.00
20260507160004 14 329 8.0 20.9 0.00 0.00 0.00
20260507155025 15 334 6.4 14.5 0.00 0.00 0.00
20260507154025 15 309 4.8 20.9 0.00 0.00 0.00
20260507153002 17 302 3.2 17.7 0.00 0.00 0.00
20260507152003 17 335 1.6 9.7 0.00 0.00 0.00
20260507151002 17 289 9.7 16.1 0.00 0.00 0.00
20260507150003 17 313 8.0 16.1 0.00 0.00 0.00
20260507145003 17 27 1.6 12.9 0.00 0.00 0.00
20260507144002 17 336 1.6 16.1 0.00 0.00 0.00
20260507143003 17 340 1.6 11.3 0.00 0.00 0.00
20260507142004 16 286 0.0 17.7 0.00 0.00 0.00
20260507141002 16 20 0.0 12.9 0.00 0.00 0.00
20260507140003 15 298 1.6 17.7 0.00 0.00 0.00
20260507135023 15 336 4.8 14.5 0.00 0.00 0.00
20260507134004 15 335 1.6 14.5 0.00 0.00 0.00
20260507133003 14 302 0.0 14.5 0.00 0.00 0.00
20260507132002 13 345 4.8 12.9 0.00 0.00 0.00
20260507131003 13 329 1.6 8.0 0.00 0.00 0.00
20260507130004 10 355 4.8 12.9 0.00 0.00 0.00
20260507125002 8 337 1.6 14.5 0.00 0.00 0.00
20260507124003 8 347 6.4 12.9 0.00 0.00 0.00
20260507123023 8 348 3.2 14.5 0.00 0.00 0.00
20260507122002 7 349 8.0 16.1 0.00 0.00 0.00
20260507121003 7 343 4.8 12.9 0.00 0.00 0.00
20260507120002 6 330 6.4 12.9 0.00 0.00 0.00
20260507115002 6 319 4.8 9.7 0.00 0.00 0.00
20260507114023 6 326 4.8 12.9 0.00 0.00 0.00
20260507113002 5 324 0.0 0.0 0.00 0.00 0.00
20260507112002 5 324 0.0 0.0 0.00 0.00 0.00
20260507111002 5 324 0.0 0.0 0.00 0.00 0.00
20260507110002 4 324 0.0 4.8 0.00 0.00 0.00
20260507105003 4 316 0.0 8.0 0.00 0.00 0.00
20260507104003 4 281 0.0 4.8 0.00 0.00 0.00
20260507103003 4 2 0.0 0.0 0.00 0.00 0.00
20260507102003 4 2 0.0 0.0 0.00 0.00 0.00
20260507101002 4 2 0.0 0.0 0.00 0.00 0.00
20260507100024 4 2 0.0 0.0 0.00 0.00 0.00
20260507095002 4 2 0.0 0.0 0.00 0.00 0.00
20260507094002 4 2 0.0 0.0 0.00 0.00 0.00
20260507093025 5 2 0.0 0.0 0.00 0.00 0.00
20260507092003 5 2 0.0 0.0 0.00 0.00 0.00
20260507091003 5 2 0.0 0.0 0.00 0.00 0.00
20260507090045 5 2 0.0 0.0 0.00 0.00 0.00
20260507085002 5 2 0.0 0.0 0.00 0.00 0.00
20260507084003 5 2 0.0 0.0 0.00 0.00 0.00
20260507083004 5 2 0.0 0.0 0.00 0.00 0.00
20260507082002 5 2 0.0 0.0 0.00 0.00 0.00
20260507081002 5 2 0.0 0.0 0.00 0.00 0.00
20260507080003 6 2 0.0 0.0 0.00 0.00 0.00
20260507075003 6 2 0.0 0.0 0.00 0.00 0.00
20260507074002 6 2 0.0 0.0 0.00 0.00 0.00
20260507073003 6 2 0.0 0.0 0.00 0.00 0.00
20260507072004 6 2 0.0 0.0 0.00 0.00 0.00
20260507071024 6 2 0.0 0.0 0.00 0.00 0.00
20260507070025 6 2 0.0 0.0 0.00 0.00 0.00
20260507065004 6 2 0.0 0.0 0.00 0.00 0.00
20260507064002 7 2 0.0 0.0 0.00 0.00 0.00
20260507063003 7 2 0.0 0.0 0.00 0.00 0.00
20260507062002 7 2 0.0 0.0 0.00 0.00 0.00
20260507061002 7 2 0.0 0.0 0.00 0.00 0.00
20260507060002 6 2 0.0 0.0 0.00 0.00 0.00
20260507055002 7 2 0.0 0.0 0.00 0.00 0.00
20260507054002 7 2 0.0 0.0 0.00 0.00 0.00
20260507053004 7 2 0.0 0.0 0.00 0.00 0.00
20260507052002 7 2 0.0 0.0 0.00 0.00 0.00
20260507051023 8 2 0.0 0.0 0.00 0.00 0.00
20260507050002 8 2 0.0 0.0 0.00 0.00 0.00
20260507045003 7 2 0.0 0.0 0.00 0.00 0.00
20260507044023 7 2 0.0 0.0 0.00 0.00 0.00
20260507043023 7 2 0.0 0.0 0.00 0.00 0.00
20260507042004 7 2 0.0 0.0 0.00 0.00 0.00
20260507041003 8 2 0.0 0.0 0.00 0.00 0.00
20260507040002 8 2 0.0 0.0 0.00 0.00 0.00
20260507035023 8 2 0.0 0.0 0.00 0.00 0.00
20260507034046 8 2 0.0 0.0 0.00 0.00 0.00
20260507033002 8 2 0.0 0.0 0.00 0.00 0.00
20260507032003 8 2 0.0 0.0 0.00 0.00 0.00
20260507031002 9 2 0.0 0.0 0.00 0.00 0.00
20260507030004 9 2 0.0 0.0 0.00 0.00 0.00
20260507025003 10 2 0.0 0.0 0.00 0.00 0.00
20260507024003 10 2 0.0 0.0 0.00 0.00 0.00
20260507023002 11 2 0.0 0.0 0.00 0.00 0.00
20260507022024 11 2 0.0 8.0 0.00 0.00 0.00
20260507021002 12 297 1.6 11.3 0.00 0.00 0.00
20260507020003 12 300 0.0 9.7 0.00 0.00 0.00
20260507015003 12 319 3.2 8.0 0.00 0.00 0.00
20260507014003 12 292 1.6 9.7 0.00 0.00 0.00
20260507013002 13 326 1.6 8.0 0.00 0.00 0.00
20260507012003 13 351 3.2 11.3 0.00 0.00 0.00
20260507011024 13 338 0.0 8.0 0.00 0.00 0.00
20260507010003 13 335 0.0 9.7 0.00 0.00 0.00
20260507005004 13 327 3.2 9.7 0.00 0.00 0.00
20260507004003 13 323 1.6 4.8 0.00 0.00 0.00
20260507003003 13 287 0.0 0.0 0.00 0.00 0.00
20260507002025 13 287 0.0 0.0 0.00 0.00 0.00
20260507001002 13 287 0.0 0.0 0.00 0.00 0.00
20260507000024 13 287 0.0 0.0 0.00 0.00 0.00
20260506235003 13 287 0.0 0.0 0.00 0.00 0.00
20260506234002 13 287 0.0 0.0 0.00 0.00 0.00
20260506233025 14 287 0.0 0.0 0.00 0.00 0.00
20260506232002 14 287 0.0 8.0 0.00 0.00 0.00
20260506231003 14 314 0.0 0.0 0.00 0.00 0.00
20260506230002 15 313 0.0 9.7 0.00 0.00 0.00
20260506225002 15 328 1.6 9.7 0.00 0.00 0.00
20260506224002 15 309 4.8 12.9 0.00 0.00 0.00
20260506223004 15 328 3.2 19.3 0.00 0.00 0.00
20260506222024 15 339 6.4 16.1 0.00 0.00 0.00
20260506221003 15 322 4.8 14.5 0.00 0.00 0.00
20260506220002 15 41 0.0 11.3 0.00 0.00 0.00
20260506215003 15 308 1.6 14.5 0.00 0.00 0.00
20260506214003 16 282 4.8 16.1 0.00 0.00 0.00
20260506213003 17 308 4.8 12.9 0.00 0.00 0.00
20260506212002 17 324 4.8 14.5 0.00 0.00 0.00
20260506211003 17 319 6.4 11.3 0.00 0.00 0.00
20260506210003 17 339 4.8 11.3 0.00 0.00 0.00
20260506205002 17 322 4.8 12.9 0.00 0.00 0.00
20260506204004 17 302 0.0 14.5 0.00 0.00 0.00
20260506203004 17 252 0.0 8.0 0.00 0.00 0.00
20260506202003 17 311 4.8 9.7 0.00 0.00 0.00
20260506201002 17 354 0.0 11.3 0.00 0.00 0.00
20260506200004 17 268 1.6 11.3 0.00 0.00 0.00
20260506195003 17 222 0.0 8.0 0.00 0.00 0.00
20260506194003 18 235 1.6 9.7 0.00 0.00 0.00
20260506193003 18 325 1.6 12.9 0.00 0.00 0.00
20260506192002 18 304 3.2 12.9 0.00 0.00 0.00
20260506191003 18 321 4.8 16.1 0.00 0.00 0.00
20260506190003 19 252 0.0 11.3 0.00 0.00 0.00
20260506185002 19 290 6.4 14.5 0.00 0.00 0.00
20260506184024 18 319 1.6 12.9 0.00 0.00 0.00
20260506183002 18 298 0.0 14.5 0.00 0.00 0.00
20260506182002 18 279 1.6 14.5 0.00 0.00 0.00
20260506181002 18 263 6.4 12.9 0.00 0.00 0.00